Location: Newark
(7.0858°N, 171.3717°E)
Time: 23:45:51
(UTC+00:00)

Vanguard 2 - Pass Details

Date: 25 November 2020
Orbit: 553 x 2937 km, 32.9° (Epoch: 20 January)

Event Time Altitude Azimuth Distance (km) Brightness Sun altitude
Rises 07:43:59 0° 293° (WNW) 3,941 11.9 -21.7°
Reaches altitude 10° 07:46:19 10° 288° (WNW) 3,227 11.4 -22.3°
Maximum altitude 07:54:34 57° 212° (SSW) 2,016 9.8 -24.2°
Drops below altitude 10° 08:08:16 10° 137° (SE) 5,172 11.5 -27.4°
Sets 08:13:07 0° 133° (SE) 6,451 12.0 -28.5°
